Regional Weather Roundup
Issued by NWS Northern Indiana

Home | Current Version | Previous Version | Graphics & Text | Print | Product List | Glossary On
Versions: 1 2 3 4 5 6 7 8 9 10 11 12 13 14 15 16 17 18 19 20 21 22 23 24 25 26 27 28 29 30 31 32 33 34 35 36 37 38 39 40 41 42 43 44 45 46 47 48 49 50
000
ASUS43 KIWX 290010
RWRIWX

KIWX WEATHER ROUNDUP
NATIONAL WEATHER SERVICE NORTHERN INDIANA
800 PM EDT FRI AUG 28 2015

NOTE: "FAIR" INDICATES FEW OR NO CLOUDS BELOW 12,000 FEET WITH NO
SIGNIFICANT WEATHER AND/OR OBSTRUCTIONS TO VISIBILITY.

* THESE STATIONS ARE NOT UNDER NWS QUALITY CONTROL. THEY ALSO MAY NOT
  REPORT WEATHER SUCH AS PRECIPITATION OR FOG.

INZ001>027-290100-
NORTHERN INDIANA

CITY           SKY/WX    TMP DP  RH WIND       PRES   REMARKS
GARY*          CLOUDY    72  61  68 VRB5      30.07F
VALPARAISO     CLOUDY    72  63  73 SE3       30.08F
6HR MIN TEMP:  71; 6HR MAX TEMP:  77;

MICHIGAN CITY* CLOUDY    70  63  78 CALM      30.08F
LAPORTE*       CLOUDY    71  70  98 CALM      30.09F
6HR MIN TEMP:  71; 6HR MAX TEMP:  78;

KNOX*          CLOUDY    70  61  73 SE5       30.07F
SOUTH BEND     LGT RAIN  73  61  65 SE5       30.09F
6HR MIN TEMP:  73; 6HR MAX TEMP:  77; 6HR PCP: TRACE;

ELKHART*       CLOUDY    72  63  73 CALM      30.10F
GOSHEN         CLOUDY    72  62  71 SE3       30.10S
6HR MIN TEMP:  72; 6HR MAX TEMP:  78;

MONTICELLO*    CLOUDY    73  61  66 CALM      30.07S
6HR MIN TEMP:  73; 6HR MAX TEMP:  77;

LOGANSPORT*    CLOUDY    68  55  64 SE6       30.09F HAZE
ROCHESTER*     CLOUDY    73  61  64 E3        30.10S
WARSAW*        CLOUDY    70  61  73 CALM      30.10F
ANGOLA*        CLEAR     72  63  73 CALM      30.12S
FORT WAYNE     CLOUDY    72  61  68 SE5       30.12S
6HR MIN TEMP:  72; 6HR MAX TEMP:  78;

HUNTINGTON*    CLOUDY    71  55  56 CALM      30.11S
6HR MIN TEMP:  71; 6HR MAX TEMP:  78;

PERU/GRISSOM   CLOUDY    72  61  67 SE3       30.08F
6HR MIN TEMP:  72; 6HR MAX TEMP:  78;

MARION*        MOCLDY    71  51  49 SE5       30.11F
6HR MIN TEMP:  49; 6HR MAX TEMP:  89;


$$
INZ028>050-290100-
CENTRAL INDIANA

CITY           SKY/WX    TMP DP  RH WIND       PRES   REMARKS
LAFAYETTE      CLOUDY    74  57  55 SE5       30.07F
6HR MIN TEMP:  73; 6HR MAX TEMP:  80;

KOKOMO*        MOCLDY    70  57  64 SE5       30.09F
6HR MIN TEMP:  70; 6HR MAX TEMP:  79;

MUNCIE*        MOCLDY    71  56  58 S5        30.12S
6HR MIN TEMP:  71; 6HR MAX TEMP:  77;

INDIANAPOLIS   MOCLDY    73  55  53 SE7       30.07F
6HR MIN TEMP:  73; 6HR MAX TEMP:  80;


$$
MIZ043>046-050>051-056>058-064>065-071>073-077>080-290100-
SOUTHWEST LOWER MICHIGAN

CITY           SKY/WX    TMP DP  RH WIND       PRES   REMARKS
BATTLE CREEK   CLOUDY    73  61  65 CALM      30.12F
6HR MIN TEMP:  73; 6HR MAX TEMP:  77;

BENTON HARBOR  CLOUDY    70  63  78 NE3       30.08F
6HR MIN TEMP:  70; 6HR MAX TEMP:  76;

COLDWATER*     CLOUDY    69  65  85 CALM      30.12S
6HR MIN TEMP:  69; 6HR MAX TEMP:  76;

HILLSDALE*     CLOUDY    70  64  81 CALM      30.13S
6HR MIN TEMP:  70; 6HR MAX TEMP:  76;

HOLLAND        CLOUDY    70  61  73 CALM      30.11F
6HR MIN TEMP:  70; 6HR MAX TEMP:  76;

GRAND RAPIDS   CLOUDY    71  61  70 SW5       30.11F
6HR MIN TEMP:  71; 6HR MAX TEMP:  76;

KALAMAZOO      CLOUDY    73  61  65 CALM      30.11S
6HR MIN TEMP:  73; 6HR MAX TEMP:  78;

STURGIS*       CLOUDY    72  63  73 CALM      30.11S
THREE RIVERS*  FAIR      72  64  77 CALM      30.11S
6HR MIN TEMP:  72; 6HR MAX TEMP:  78;


$$
OHZ001>008-015>018-024>025-290100-
NORTHWEST OHIO

CITY           SKY/WX    TMP DP  RH WIND       PRES   REMARKS
WAUSEON*       FAIR      70  66  88 CALM      30.12S
DEFIANCE       CLOUDY    75  58  55 CALM      30.12S
6HR MIN TEMP:  74; 6HR MAX TEMP:  79;

FINDLAY        MOCLDY    73  60  63 SE3       30.11F
6HR MIN TEMP:  73; 6HR MAX TEMP:  79;

TOLEDO EXPRESS MOCLDY    67  62  84 CALM      30.12F
6HR MIN TEMP:  67; 6HR MAX TEMP:  77;

TOLEDO METCALF MOCLDY    72  58  61 E5        30.13S
6HR MIN TEMP:  72; 6HR MAX TEMP:  78;

LIMA           MOCLDY    70  60  70 SE3       30.12F
6HR MIN TEMP:  70; 6HR MAX TEMP:  78;


$$
AND FOR LAKE MICHIGAN COASTAL AND OPEN LAKE BUOY OBSERVATIONS

STATION/POSITION TEMP    WIND        PRES    VSBY  WAVE
                 AIR SEA DIR/SP/G                  HT/PER
                 (F)     (DEG/KT/KT) (MB)    (MI)  (FT/S)
MICHIGAN CITY     70      40/  7/  7   N/A
BURNS HARBOR      71      70/  9/ 10 1018.6F
SAINT JOSEPH      71      20/  1/  3 1018.6F
SOUTH LAKE BUOY   68 69  110/  6/  8 1018.1F         1
4 MI NW BRIDGMAN  71 71  100/  8/  8   N/A           0
MICHIGAN CITY     71 71   90/  6/  8   N/A           0

$$
&&


USA.gov is the U.S. government's official web portal to all federal, state and local government web resources and services.